sat.trackr.live / text

‹ back to catalog

CONNECTA IOT-12

NORAD 64553 · 2025-135AB

PAYLOAD ACTIVE UNKNOWN

§ Identity

Operator
Country
TURK
Launch date
2025-06-23
Launch site
AFWTR
Launch vehicle
Mass (kg)
RCS (m²)

External: N2YO · Heavens-Above · Gunter

§ Orbital elements

Epoch: 2026-05-25T01:08:22.317792Z

Period
94.69 min
Inclination
97.4717°
Eccentricity
0.0002635
Mean motion
15.20765695 rev/d
Perigee alt
501.7 km
Apogee alt
505.3 km
Semi-major
6,881.7 km
B*
1.4356e-4
RAAN
260.7466°
Arg perigee
107.1132°
Mean anomaly
253.0392°
Rev number
5,135

§ Raw data

CONNECTA IOT-121 64553U 25135AB  26145.04748053  .00003092  00000+0  14356-3 0  99932 64553  97.4717 260.7466 0002635 107.1132 253.0392 15.20765695 51356

JSON: /api/v1/satellites/64553 · /tle

For live sub-satellite position, see the globe view (requires WebGL).

§ Visibility from observer

Set your observer location to see the next 7 days of passes ≥ 10°. The values pass through the URL so the page stays shareable.

No JS? Fill the form by hand. The geolocation button needs JavaScript.

§ Radio — SatNOGS DB

ModeDescriptionDownlinkUplink
GMSK Mode S - GMSK 4k8 AX.25 TLM 2.240 GHz
GMSK Mode U - GMSK 4k8 AX.25 TLM 401.540 MHz

2 transmitters · refreshed weekly from db.satnogs.org